Mansfield Center, CT

8:42 PM EST on February 22, 2017 (GMT -0500)
Windham

Weather History for KIJD - December, 2013

Change the Weather History Date:

Tuesday, December 24, 2013

  Actual Average Record
Temperature  
Mean Temperature 32 °F -  
Max Temperature 37 °F 37 °F 69 °F (2015)
Min Temperature 25 °F 18 °F -15 °F (1989)
Degree Days  
Heating Degree Days 32    
Moisture  
Dew Point 19 °F    
Average Humidity 58    
Maximum Humidity 82    
Minimum Humidity 39    
Precipitation  
Precipitation 0.00 in - - ()
Sea Level Pressure  
Sea Level Pressure 30.15 in    
Wind  
Wind Speed 8 mph (NNW)    
Max Wind Speed 16 mph    
Max Gust Speed 21 mph    
Visibility 10 miles    
Events      
Averages and records for this station are not official NWS values.
T = Trace of Precipitation, MM = Missing Value Source: NWS Daily Summary

Daily Weather History Graph

Daily Weather History Graph

Search for Another Location

Airport or City:

Trip Planner

Search our weather history database for the weather conditions in past years. The results will help you decide how hot, cold, wet, or windy it might be!

Date:

Astronomy

Dec. 24, 2013 Rise Set
Actual Time 7:14 AM EST 4:23 PM EST
Civil Twilight 6:42 AM EST 4:54 PM EST
Nautical Twilight 6:07 AM EST 5:29 PM EST
Astronomical Twilight 5:33 AM EST 6:03 PM EST
Moon 11:34 PM EST (12/24) 11:01 AM EST (12/24)
Length of Visible Light 10h 12m
Length of Day
9h 09m
Waning Gibbous, 59% of the Moon is Illuminated
Dec 24
Waning Gibbous
Dec 25
Last Quarter
Jan 1
New
Jan 7
First Quarter
Jan 15
Full

Hourly Weather History & Observations

Time (EST) Temp. Windchill Dew Point Humidity Pressure Visibility Wind Dir Wind Speed Gust Speed Precip Events Conditions
12:52 AM 37.0 °F 31.6 °F 26.1 °F 65% 30.13 in 10.0 mi NW 6.9 mph - N/A   Overcast
1:52 AM 37.0 °F 29.8 °F 26.1 °F 65% 30.11 in 10.0 mi NNW 10.4 mph - N/A   Mostly Cloudy
2:52 AM 37.0 °F 31.0 °F 26.1 °F 65% 30.12 in 10.0 mi NNW 8.1 mph - N/A   Clear
3:52 AM 36.0 °F 30.3 °F 25.0 °F 64% 30.13 in 10.0 mi NNW 6.9 mph - N/A   Clear
4:52 AM 35.1 °F 26.9 °F 24.1 °F 64% 30.13 in 10.0 mi NNW 11.5 mph - N/A   Clear
5:52 AM 34.0 °F 26.0 °F 21.0 °F 59% 30.12 in 10.0 mi North 10.4 mph - N/A   Clear
6:52 AM 33.1 °F 26.9 °F 19.9 °F 59% 30.14 in 10.0 mi NNW 6.9 mph - N/A   Clear
7:52 AM 32.0 °F 24.8 °F 19.9 °F 61% 30.16 in 10.0 mi NNW 8.1 mph - N/A   Clear
8:52 AM 32.0 °F 23.0 °F 16.0 °F 52% 30.17 in 10.0 mi NNW 11.5 mph - N/A   Clear
9:52 AM 32.0 °F 24.8 °F 17.1 °F 54% 30.13 in 10.0 mi North 8.1 mph - N/A   Clear
10:52 AM 33.1 °F 26.1 °F 15.1 °F 48% 30.14 in 10.0 mi NNW 8.1 mph - N/A   Clear
11:52 AM 35.1 °F 27.9 °F 15.1 °F 44% 30.11 in 10.0 mi NNW 9.2 mph - N/A   Clear
12:52 PM 36.0 °F 31.1 °F 15.1 °F 43% 30.08 in 10.0 mi North 5.8 mph - N/A   Clear
1:52 PM 37.0 °F 29.3 °F 14.0 °F 39% 30.06 in 10.0 mi North 11.5 mph - N/A   Clear
2:52 PM 35.1 °F 27.4 °F 14.0 °F 42% 30.07 in 10.0 mi North 10.4 mph - N/A   Overcast
3:52 PM 35.1 °F 28.6 °F 14.0 °F 42% 30.10 in 10.0 mi NNW 8.1 mph - N/A   Overcast
4:52 PM 34.0 °F 28.0 °F 15.1 °F 46% 30.12 in 10.0 mi Variable 6.9 mph - N/A   Overcast
5:52 PM 30.9 °F 22.2 °F 21.0 °F 67% 30.16 in 10.0 mi NW 10.4 mph - N/A   Overcast
6:52 PM 30.0 °F 25.2 °F 24.1 °F 79% 30.18 in 10.0 mi North 4.6 mph - N/A   Overcast
7:00 PM 30.0 °F 26.5 °F 24.1 °F 79% 30.17 in 10.0 mi North 3.5 mph - N/A   Overcast
7:22 PM 28.9 °F - 24.1 °F 82% 30.18 in 10.0 mi Calm Calm - N/A   Scattered Clouds
7:52 PM 28.9 °F - 24.1 °F 82% 30.19 in 10.0 mi Calm Calm - N/A   Mostly Cloudy
8:52 PM 28.9 °F 21.1 °F 17.1 °F 61% 30.22 in 10.0 mi NW 8.1 mph - N/A   Scattered Clouds
9:52 PM 28.9 °F 19.2 °F 15.1 °F 56% 30.23 in 10.0 mi NNW 11.5 mph 17.3 mph N/A   Overcast
10:52 PM 28.0 °F 17.5 °F 12.9 °F 53% 30.25 in 10.0 mi WNW 12.7 mph 18.4 mph N/A   Overcast
11:52 PM 25.0 °F 12.2 °F 6.1 °F 45% 30.27 in 10.0 mi NNW 16.1 mph 20.7 mph N/A   Clear